TimeMST,TemperatureF,Dew PointF,Humidity,Sea Level PressureIn,VisibilityMPH,Wind Direction,Wind SpeedMPH,Gust SpeedMPH,PrecipitationIn,Events,Conditions,WindDirDegrees,DateUTC
12:53 AM,19.9,14.0,78,30.21,7.0,Calm,Calm,-,0.00,Snow,Light Snow,0,2013-12-14 07:53:00
1:53 AM,18.0,15.1,88,30.24,9.0,Calm,Calm,-,0.00,Snow,Light Snow,0,2013-12-14 08:53:00
2:53 AM,14.0,12.0,92,30.27,8.0,Calm,Calm,-,0.00,Snow,Light Snow,0,2013-12-14 09:53:00
3:53 AM,17.1,14.0,88,30.29,10.0,Calm,Calm,-,0.00,,Overcast,0,2013-12-14 10:53:00
4:53 AM,17.1,15.1,92,30.33,10.0,Calm,Calm,-,N/A,,Overcast,0,2013-12-14 11:53:00
5:30 AM,16.0,14.0,92,30.28,10.0,NNW,3.5,-,N/A,,Overcast,340,2013-12-14 12:30:00
5:53 AM,16.0,15.1,96,30.40,10.0,Calm,Calm,-,N/A,,Overcast,0,2013-12-14 12:53:00
6:53 AM,12.9,10.9,92,30.44,10.0,SW,3.5,-,N/A,,Mostly Cloudy,230,2013-12-14 13:53:00
7:33 AM,12.0,10.0,92,30.33,10.0,Calm,Calm,-,N/A,,Mostly Cloudy,0,2013-12-14 14:33:00
7:53 AM,10.9,10.0,96,30.49,10.0,South,3.5,-,N/A,,Mostly Cloudy,190,2013-12-14 14:53:00
8:53 AM,16.0,12.9,88,30.48,10.0,Calm,Calm,-,0.00,Snow,Light Snow,0,2013-12-14 15:53:00
9:53 AM,19.0,14.0,81,30.46,10.0,Calm,Calm,-,0.00,,Partly Cloudy,0,2013-12-14 16:53:00
10:53 AM,23.0,12.9,65,30.45,10.0,Calm,Calm,-,N/A,,Partly Cloudy,0,2013-12-14 17:53:00
11:53 AM,24.1,12.0,60,30.42,10.0,Calm,Calm,-,N/A,,Clear,0,2013-12-14 18:53:00
12:53 PM,27.0,10.9,51,30.39,10.0,North,4.6,-,N/A,,Clear,360,2013-12-14 19:53:00
1:53 PM,28.9,10.9,47,30.39,10.0,Calm,Calm,-,N/A,,Clear,0,2013-12-14 20:53:00
2:53 PM,27.0,12.0,53,30.42,10.0,Calm,Calm,-,N/A,,Clear,0,2013-12-14 21:53:00
3:53 PM,19.9,10.9,68,30.45,10.0,Calm,Calm,-,N/A,,Clear,0,2013-12-14 22:53:00
4:53 PM,19.0,10.0,68,30.48,10.0,SSW,9.2,-,N/A,,Clear,210,2013-12-14 23:53:00
5:53 PM,14.0,7.0,74,30.54,10.0,SSW,8.1,-,N/A,,Clear,200,2013-12-15 00:53:00
6:53 PM,12.0,6.1,77,30.56,10.0,SSW,8.1,-,N/A,,Clear,200,2013-12-15 01:53:00
7:53 PM,12.0,6.1,77,30.60,10.0,SSW,5.8,-,N/A,,Partly Cloudy,210,2013-12-15 02:53:00
8:53 PM,12.9,6.1,74,30.56,10.0,SSW,5.8,-,N/A,,Scattered Clouds,200,2013-12-15 03:53:00
9:53 PM,16.0,10.0,77,30.53,10.0,SSW,4.6,-,N/A,,Overcast,210,2013-12-15 04:53:00
10:53 PM,19.0,10.9,71,30.47,10.0,SW,4.6,-,N/A,,Overcast,230,2013-12-15 05:53:00
11:53 PM,18.0,12.0,78,30.47,10.0,NW,3.5,-,N/A,,Overcast,310,2013-12-15 06:53:00